OE5RBO Weather Reports


Display with metric or nautical units.
time (UTC)temp
F
wind
direction
speed
MPH
gust
MPH
rain 1hr
in
rain 24hr
in
rain mn
in
humidity
%
barometer
mb
20260502210626 57 49 1.0 3.0 0.00 0.00 0.00 56 1017.0
20260502204626 59 55 0.0 4.0 0.00 0.00 0.00 57 1017.2
20260502203625 61 62 1.0 3.0 0.00 0.00 0.00 47 1017.1
20260502202625 61 0 0.0 0.0 0.00 0.00 0.00 50 1017.2
20260502201625 63 198 1.0 4.0 0.00 0.00 0.00 43 1017.2
20260502200624 63 70 1.0 4.0 0.00 0.00 0.00 41 1017.2
20260502195624 64 41 1.0 3.0 0.00 0.00 0.00 41 1017.3
20260502193623 65 28 3.0 5.0 0.00 0.00 0.00 39 1017.3
20260502191622 66 65 4.0 6.0 0.00 0.00 0.00 37 1017.3
20260502190622 67 18 4.0 7.0 0.00 0.00 0.00 36 1017.2
20260502184621 68 44 5.0 9.0 0.00 0.00 0.00 35 1017.2
20260502182620 68 28 5.0 8.0 0.00 0.00 0.00 37 1017.2
20260502181620 68 21 4.0 7.0 0.00 0.00 0.00 38 1016.8
20260502180620 69 46 2.0 4.0 0.00 0.00 0.00 40 1017.2
20260502163616 78 42 2.0 6.0 0.00 0.00 0.00 29 1017.5
20260502161616 78 6 4.0 9.0 0.00 0.00 0.00 31 1017.6
20260502151614 78 177 5.0 9.0 0.00 0.00 0.00 29 1018.3
20260502150614 79 207 4.0 7.0 0.00 0.00 0.00 32 1018.4
20260502130609 80 318 3.0 8.0 0.00 0.00 0.00 35 1019.9
20260502123608 78 239 3.0 7.0 0.00 0.00 0.00 35 1020.1
20260502122607 78 205 2.0 7.0 0.00 0.00 0.00 35 1020.2
20260502121607 78 219 2.0 10.0 0.00 0.00 0.00 35 1020.4
20260502120607 77 198 5.0 9.0 0.00 0.00 0.00 34 1020.4
20260502115606 77 197 3.0 8.0 0.00 0.00 0.00 34 1020.5
20260502114606 77 203 3.0 9.0 0.00 0.00 0.00 33 1020.6
20260502113606 77 205 2.0 7.0 0.00 0.00 0.00 34 1020.7
20260502112605 77 179 2.0 7.0 0.00 0.00 0.00 35 1020.8
20260502111605 76 210 2.0 6.0 0.00 0.00 0.00 34 1020.9
20260502110605 75 205 5.0 10.0 0.00 0.00 0.00 38 1021.0
20260502105604 77 207 2.0 8.0 0.00 0.00 0.00 33 1021.0
20260502104604 76 13 3.0 6.0 0.00 0.00 0.00 34 1021.1
20260502101603 76 211 1.0 3.0 0.00 0.00 0.00 38 1021.4
20260502100602 75 58 4.0 11.0 0.00 0.00 0.00 36 1021.4
20260502090600 71 205 2.0 5.0 0.00 0.00 0.00 46 1022.1
20260502070556 65 41 1.0 3.0 0.00 0.00 0.00 62 1022.6
20260502065556 63 0 0.0 0.0 0.00 0.00 0.00 64 1022.6
20260502063555 60 77 0.0 1.0 0.00 0.00 0.00 69 1022.6
20260502062554 60 0 0.0 0.0 0.00 0.00 0.00 67 1022.7
20260502061554 60 236 0.0 1.0 0.00 0.00 0.00 69 1022.7
20260502060553 58 0 0.0 0.0 0.00 0.00 0.00 71 1022.7
20260502055553 58 0 0.0 0.0 0.00 0.00 0.00 73 1022.7
20260502054553 56 0 0.0 0.0 0.00 0.00 0.00 75 1022.8
20260502053553 55 0 0.0 0.0 0.00 0.00 0.00 80 1022.8
20260502052552 52 0 0.0 0.0 0.00 0.00 0.00 86 1022.8
20260502045551 43 0 0.0 0.0 0.00 0.00 0.00 96 1022.8
20260502044551 42 0 0.0 0.0 0.00 0.00 0.00 96 1022.7
20260502043550 41 236 0.0 0.0 0.00 0.00 0.00 96 1022.8
20260502042550 41 0 0.0 0.0 0.00 0.00 0.00 96 1022.8
20260502041549 42 0 0.0 0.0 0.00 0.00 0.00 96 1022.6
20260502040549 43 0 0.0 0.0 0.00 0.00 0.00 95 1022.7
20260502035549 42 0 0.0 0.0 0.00 0.00 0.00 96 1022.7
20260502034548 42 0 0.0 0.0 0.00 0.00 0.00 96 1022.7
20260502033548 42 0 0.0 0.0 0.00 0.00 0.00 95 1022.7
20260502032548 43 0 0.0 0.0 0.00 0.00 0.00 94 1022.8
20260502031547 43 0 0.0 0.0 0.00 0.00 0.00 95 1022.8
20260502025547 44 0 0.0 0.0 0.00 0.00 0.00 93 1022.9
20260502024546 44 0 0.0 0.0 0.00 0.00 0.00 94 1023.1
20260502023546 44 0 0.0 0.0 0.00 0.00 0.00 94 1023.1
20260502022545 44 0 0.0 0.0 0.00 0.00 0.00 93 1023.1
20260502021545 44 0 0.0 0.0 0.00 0.00 0.00 93 1023.2
20260502020545 44 0 0.0 0.0 0.00 0.00 0.00 92 1023.2
20260502015545 44 0 0.0 0.0 0.00 0.00 0.00 91 1023.4
20260502014544 45 0 0.0 0.0 0.00 0.00 0.00 89 1023.5
20260502013544 46 0 0.0 0.0 0.00 0.00 0.00 90 1023.6
20260502011543 46 0 0.0 0.0 0.00 0.00 0.00 88 1023.7
20260502010542 46 0 0.0 0.0 0.00 0.00 0.00 87 1023.9
20260502005542 47 0 0.0 0.0 0.00 0.00 0.00 87 1024.0
20260502004542 47 236 0.0 1.0 0.00 0.00 0.00 85 1024.1
20260502002541 49 208 1.0 4.0 0.00 0.00 0.00 82 1024.2
20260501235540 48 41 1.0 3.0 0.00 0.00 0.00 84 1024.3
20260501234539 47 23 0.0 1.0 0.00 0.00 0.00 87 1024.4
20260501233539 47 0 0.0 0.0 0.00 0.00 0.00 87 1024.5
20260501232539 47 0 0.0 0.0 0.00 0.00 0.00 85 1024.5
20260501231539 48 0 0.0 0.0 0.00 0.00 0.00 84 1024.6
20260501223537 51 0 0.0 0.0 0.00 0.00 0.00 77 1024.7
20260501222537 51 0 0.0 0.0 0.00 0.00 0.00 78 1024.8
20260501221536 52 0 0.0 0.0 0.00 0.00 0.00 76 1024.9
20260501220536 52 60 0.0 3.0 0.00 0.00 0.00 75 1024.9
20260501215536 53 62 1.0 3.0 0.00 0.00 0.00 75 1024.9
20260501214535 52 150 0.0 3.0 0.00 0.00 0.00 75 1024.9
20260501213535 52 0 0.0 0.0 0.00 0.00 0.00 77 1024.9
20260501212535 51 0 0.0 0.0 0.00 0.00 0.00 79 1024.8